map of CDR home
CDR - Airport
Location
City:  Chadron, Nebraska, United States
Name:Chadron Municipal Airport
ICAO:KCDR
IATA:CDR
FAA LID:CDR

Details
Type:Airport (Part 139 Class III)
Use:Public/Civil
Latitude:4250'15"N (42.837558)
Longitude:10305'43"W (-103.095401)
Datum:WGS 1984
Elevation:3297 ft (1005 m)
Variation:7.33E (WMM2015 magnetic declination)
-0.10 annual change
Runways:2
Longest:5998 × 100 ft (1828 × 30.5 m), paved

Time
Time Zone:UTC-6 (DST-5)
Local Time:

Weather
METAR:KCDR 240653Z AUTO 00000KT 10SM CLR 11/10 A2996 RMK AO2 SLP134 T01110100 402670111
TAF:KCDR 240520Z 2406/2506 26007KT P6SM SCT100
FM241700 27012G22KT P6SM SCT250
FM242300 26007KT P6SM SCT250

Related Locations
Nearby:
Farthest:RRG: 10658 mi / 17152 km
Plaine Corail [Sir Gatan Duval Airport (Plaine Corail Airport)], Rodrigues Island, MU

Find:

   beyond  
but within

Other Information
Maps:
NOTAMs:
Links:
Sources:

  
flag of United States
flag of Nebraska
  

Sectional Chart

Flight Planning
at skyvector.com

Satellite Image

Google Maps Satellite view

 

Copyright © 2004-2018 Karl L. Swartz. All rights reserved.
The Great Circle Mapper name and logo are trademarks of the Great Circle Mapper.
All other trademarks mentioned herein belong to their respective owners.
Please see credits for attibutions and further copyright information.

  Follow gcmap on Facebook Follow gcmap on Twitter Follow gcmap on Google+ GCmap on LinkedIn

hCard Microformat

Geo Microformat